This is the latest recevied weather packets stored in our database for station/object DL7MAP-13. If no packets are shown the sender has not sent any weather packets the latest 10 day(s).
| Time | Temp. | Humidity | Pressure | Rain* | Wind** | Luminosity | Snow |
|---|---|---|---|---|---|---|---|
| 1777615086 | 15° C | 58% | 1024.5 hPa | - | - | - | - |
| 1777614187 | 13.89° C | 60% | 1024.4 hPa | - | - | - | - |
| 1777613287 | 14.44° C | 61% | 1024.5 hPa | - | - | - | - |
| 1777612387 | 13.33° C | 67% | 1024.5 hPa | - | - | - | - |
| 1777611486 | 11.67° C | 72% | 1024.6 hPa | - | - | - | - |
| 1777610587 | 10.56° C | 78% | 1024.7 hPa | - | - | - | - |
| 1777609687 | 8.33° C | 84% | 1024.6 hPa | - | - | - | - |
| 1777608786 | 6.11° C | 84% | 1024.3 hPa | - | - | - | - |
| 1777607886 | 5° C | 85% | 1024.2 hPa | - | - | - | - |
| 1777606986 | 5° C | 85% | 1024.2 hPa | - | - | - | - |
| 1777606086 | 5.56° C | 85% | 1024.3 hPa | - | - | - | - |
| 1777605187 | 5.56° C | 85% | 1024.2 hPa | - | - | - | - |
| 1777604287 | 5° C | 85% | 1024.1 hPa | - | - | - | - |
| 1777603386 | 4.44° C | 84% | 1024.1 hPa | - | - | - | - |
| 1777602486 | 4.44° C | 84% | 1024.2 hPa | - | - | - | - |
| 1777601586 | 5° C | 83% | 1024.2 hPa | - | - | - | - |
| 1777600686 | 5.56° C | 82% | 1024.2 hPa | - | - | - | - |
| 1777587187 | 9.44° C | 70% | 1024.4 hPa | - | - | - | - |
| 1777583587 | 10° C | 66% | 1024 hPa | - | - | - | - |
| 1777582687 | 10.56° C | 64% | 1024 hPa | - | - | - | - |
| 1777579987 | 11.67° C | 59% | 1024 hPa | - | - | - | - |
| 1777578187 | 12.78° C | 55% | 1023.9 hPa | - | - | - | - |
| 1777573687 | 16.67° C | 44% | 1023.2 hPa | - | - | - | - |
| 1777564687 | 20.56° C | 34% | 1023 hPa | - | - | - | - |
| 1777561087 | 21.67° C | 32% | 1023.7 hPa | - | - | - | - |
* Rain since midnight (hover to see other rain measurements)
** Current wind speed in m/s (hover to see current wind gust speed)